Wind_Speed
30 30 30 30 30 30 30 30 30 30 30 31 31 32 31 30 30 29 29 29 30 30 31 30 30 30 31 32 31 27 24 21 21 23 25 28 29 28 26 23 21 20 20 21 22 25 28 32 35 37 39 39 40 41 42 42 41 38 36 37 38 39 40 41 42 42 43 42 40
28 28 28 28 28 27 27 27 28 28 28 29 29 31 31 32 32 31 31 30 30 31 31 30 29 30 31 31 27 23 20 19 20 22 25 28 30 29 27 24 21 20 20 20 21 23 26 31 35 38 39 39 41 42 43 43 42 40 36 35 36 37 39 40 41 41 41 40 38
26 26 25 25 24 24 24 24 25 25 26 26 27 29 31 32 33 33 33 32 32 32 32 33 32 32 30 27 23 19 18 17 18 21 24 28 30 30 28 26 23 21 20 20 20 22 25 29 34 38 40 40 41 42 43 43 43 42 40 37 35 36 37 38 39 40 40 39 37
24 24 23 23 23 22 22 23 24 24 25 25 26 28 30 31 33 34 35 35 34 34 34 34 35 32 28 24 22 20 20 19 19 20 23 26 29 30 29 27 25 22 20 19 19 21 23 26 30 36 39 40 41 41 42 43 43 44 43 42 38 36 35 36 38 39 39 38 37
23 22 22 22 22 21 21 22 23 23 24 25 26 27 29 31 32 33 35 36 35 35 34 34 34 32 29 27 26 25 24 22 21 20 22 25 28 29 30 28 26 23 20 19 18 19 21 22 26 31 36 39 39 39 40 42 43 44 45 44 43 39 36 35 35 37 37 37 37
23 22 21 21 20 20 20 20 21 22 23 23 25 26 28 29 31 32 32 34 34 34 34 33 33 32 31 30 29 29 27 25 23 21 21 24 27 29 29 29 26 24 21 19 18 18 19 20 22 26 32 36 37 38 38 38 40 42 44 45 45 43 39 35 34 34 35 35 35
22 21 21 20 19 19 19 19 19 20 21 22 24 25 26 27 28 30 31 32 33 33 33 33 33 32 31 31 31 30 29 26 24 23 23 24 25 27 28 29 28 26 23 21 20 19 19 19 20 22 26 31 34 35 35 35 36 38 40 43 44 44 42 39 35 34 34 34 35
21 20 20 19 19 18 18 18 18 19 20 21 23 23 24 25 26 27 28 30 31 32 32 32 32 31 31 31 32 31 30 28 26 25 24 24 25 26 28 29 29 28 25 23 21 21 20 18 18 19 21 25 30 33 34 33 33 34 37 40 42 43 42 41 38 36 35 35 34
21 20 19 19 18 18 18 18 18 19 20 21 21 22 22 23 24 24 26 28 29 30 31 31 31 31 31 31 31 31 31 30 28 26 25 23 24 25 27 29 30 29 27 24 23 22 21 19 18 17 18 20 25 30 32 32 31 32 33 36 39 40 41 41 40 38 37 35 34
21 20 19 19 18 18 18 18 18 19 19 20 20 21 21 22 23 24 25 26 27 28 30 30 30 30 31 31 31 31 31 31 30 28 27 26 25 25 26 28 30 29 27 25 24 23 22 21 19 18 17 17 20 24 29 31 31 31 32 34 36 38 40 41 41 40 38 37 36
21 20 19 19 19 19 18 19 19 19 19 20 20 20 21 22 23 25 26 26 27 28 28 28 29 29 31 31 32 32 32 32 31 30 29 28 26 25 26 27 28 28 27 25 24 23 22 21 20 19 18 17 17 19 23 28 31 31 31 32 34 36 39 40 41 41 41 40 38
21 20 20 20 20 20 20 20 20 20 20 20 20 20 21 21 23 25 27 28 28 28 27 26 26 28 29 31 32 33 33 33 33 32 31 29 28 27 26 27 27 27 26 25 23 23 22 22 21 20 20 19 18 17 19 23 28 31 32 32 33 34 36 38 40 42 42 42 41
21 21 21 21 21 22 22 22 22 21 21 21 20 20 20 21 21 22 24 27 28 28 26 25 25 25 27 29 30 32 33 34 34 33 32 31 29 28 27 27 27 27 26 25 23 22 22 22 22 21 21 20 20 19 18 19 23 28 32 33 33 33 34 36 39 42 43 44 44
21 21 22 23 23 24 24 24 23 22 22 22 21 21 21 21 20 19 20 23 25 26 26 25 25 24 25 26 28 30 32 34 34 34 33 32 31 30 29 28 28 27 26 25 23 23 23 23 23 22 21 21 21 20 19 18 19 23 28 32 34 34 34 35 38 41 43 45 47
22 22 23 24 24 25 25 24 24 23 23 23 22 22 22 21 20 19 18 19 22 25 26 26 26 24 23 23 24 27 30 32 34 34 34 33 32 31 30 30 29 28 27 25 24 24 24 24 24 23 23 22 22 22 21 20 19 20 24 29 33 35 35 35 37 40 43 46 48
22 23 24 25 25 26 25 24 24 24 23 23 23 23 22 22 21 19 18 18 19 22 25 27 27 26 25 24 23 24 26 29 32 34 34 34 33 32 32 31 31 30 28 27 26 25 25 25 25 25 24 23 22 22 22 22 20 20 21 24 29 33 35 36 37 40 43 46 48
23 24 25 26 26 26 25 24 24 24 24 24 24 23 23 22 21 20 19 18 18 20 23 26 28 28 28 27 25 24 24 26 29 32 34 34 34 34 33 33 32 31 30 29 28 27 27 27 26 26 26 25 24 23 23 23 22 21 21 21 24 28 32 35 37 39 41 44 47
25 25 26 26 26 26 25 24 23 23 24 24 24 24 24 23 22 21 21 19 18 18 20 24 26 28 29 29 27 26 25 25 26 29 32 34 35 35 34 34 34 33 32 31 30 30 29 28 28 28 28 27 26 25 24 24 24 23 23 22 22 24 28 32 35 37 39 40 44
26 27 27 27 26 25 24 23 23 23 24 24 25 25 25 24 24 23 22 21 20 19 19 21 24 26 27 27 27 27 27 26 26 27 29 32 34 35 36 35 35 34 34 33 32 32 31 31 30 30 29 29 28 27 26 25 25 25 25 24 23 23 25 28 32 35 37 39 41
28 28 28 27 25 24 23 23 22 23 23 24 25 26 26 26 26 25 24 23 22 21 20 20 21 23 24 25 25 26 27 27 27 27 28 30 32 35 36 36 36 35 35 35 34 34 33 33 32 32 31 31 30 29 28 27 26 26 26 26 26 25 25 26 29 32 35 37 38
29 28 27 26 25 24 23 22 22 22 23 24 25 26 27 27 27 27 26 25 24 23 22 21 21 21 22 23 24 24 25 26 27 27 28 29 31 33 35 36 36 37 36 36 36 35 35 35 35 34 34 33 32 31 30 30 29 28 28 28 28 27 26 26 27 29 32 35 37
29 28 26 25 24 23 23 22 22 21 22 22 23 25 26 28 28 28 29 28 27 25 24 23 22 22 22 22 23 24 24 25 27 28 28 29 30 32 34 35 36 37 38 37 37 37 37 36 36 36 36 35 34 33 33 32 31 31 30 30 30 29 29 28 27 28 29 32 34
29 27 26 25 24 24 23 22 22 21 21 21 22 23 25 26 28 29 30 30 29 28 27 26 25 24 23 23 23 24 25 26 27 28 29 30 31 32 33 34 36 37 38 39 38 38 38 38 38 37 37 37 37 36 35 34 34 33 33 32 32 31 31 30 29 28 28 29 32
28 27 26 25 24 24 23 22 22 21 21 21 21 22 23 24 26 28 29 30 30 30 30 29 28 27 26 25 25 25 26 26 27 28 29 30 31 31 32 33 35 36 37 38 38 38 38 38 38 38 38 39 39 38 38 37 36 36 35 35 34 33 32 31 30 29 28 29 30
27 26 25 25 24 24 23 22 22 22 22 21 21 21 22 23 24 25 27 28 29 30 31 31 31 31 30 29 28 28 28 28 28 28 29 30 30 31 32 33 34 35 36 36 37 37 38 38 38 38 38 38 39 40 40 39 38 38 37 37 36 35 34 32 31 30 29 29 30
27 26 25 25 25 24 23 23 22 22 22 22 21 21 21 21 22 23 24 25 27 28 29 30 32 32 33 32 31 31 30 30 30 29 29 29 30 31 32 33 33 34 35 35 36 36 36 36 36 37 37 38 39 40 40 40 38 37 37 37 37 37 35 34 32 31 30 30 31
27 26 26 25 25 25 24 23 23 22 22 22 22 21 21 20 21 21 22 23 24 25 26 28 29 31 32 33 33 33 32 32 31 30 30 29 29 30 31 32 33 34 34 34 35 35 35 36 36 36 36 37 38 39 40 40 38 37 37 38 38 38 37 35 34 32 31 30 31
28 27 26 26 25 25 24 24 23 23 23 24 23 23 21 20 20 20 20 21 22 23 23 24 25 27 28 30 32 33 33 32 31 31 31 30 31 31 32 32 33 34 34 34 34 34 34 35 35 35 35 36 36 37 38 39 38 37 37 38 39 39 38 37 35 34 32 30 30
29 28 27 26 26 25 25 24 24 24 24 24 24 23 22 21 20 19 19 20 20 20 21 21 22 23 24 25 28 30 30 30 30 30 31 31 33 34 35 35 36 36 36 35 35 34 34 34 34 34 34 34 34 35 36 38 38 38 38 38 39 39 38 37 36 35 33 31 29
29 28 27 26 26 25 25 25 24 24 24 24 25 24 23 22 20 19 19 18 18 18 19 19 19 20 20 22 24 26 27 29 29 30 30 32 33 35 37 38 38 38 37 36 36 35 35 34 33 33 32 32 32 33 34 36 37 37 38 38 39 39 39 38 37 36 34 32 30
29 28 28 27 26 26 25 25 24 24 24 24 25 25 24 23 21 20 19 18 18 18 18 18 17 17 18 20 21 22 24 26 28 29 30 32 33 35 36 37 37 36 35 35 35 35 34 34 33 33 32 31 31 31 33 34 36 37 37 38 39 39 39 38 37 36 35 33 31
30 29 28 28 27 26 25 25 25 24 24 25 26 27 26 25 23 21 20 19 19 18 17 16 16 16 17 17 18 19 20 22 24 27 30 32 33 33 33 33 33 33 33 33 33 33 33 33 33 33 32 31 30 30 31 32 34 36 37 38 39 39 39 38 37 37 35 34 32
30 29 28 28 28 27 26 26 26 26 26 26 27 28 28 27 24 22 21 20 19 18 17 16 15 15 15 15 16 17 18 19 22 25 28 31 32 32 32 32 32 32 32 32 32 32 32 32 33 33 32 32 30 29 29 30 32 35 37 38 39 39 38 38 38 37 36 35 34
30 29 29 28 28 28 27 27 27 27 27 28 28 29 29 28 26 24 22 20 19 19 18 17 15 14 13 13 13 14 15 17 19 23 27 30 32 33 33 33 33 33 33 33 33 33 32 32 32 33 33 32 31 30 29 30 32 35 37 38 39 39 38 38 38 38 37 36 35
31 30 30 29 29 28 28 27 27 28 28 29 29 29 29 28 27 25 23 21 20 19 18 17 16 15 14 13 12 13 14 15 17 20 24 28 31 32 33 34 34 34 34 34 34 33 33 33 33 33 33 33 32 31 30 31 33 35 37 38 39 39 39 38 38 38 37 37 36
31 31 31 30 29 29 28 28 28 28 29 29 30 30 30 28 27 25 23 22 21 20 19 18 17 16 15 14 13 13 14 15 17 19 22 25 28 31 32 34 34 34 34 34 35 34 34 34 33 33 34 34 34 34 33 33 34 36 37 38 39 39 39 39 38 38 38 37 37
31 31 31 30 30 29 29 28 29 29 29 30 30 30 30 30 27 25 23 22 22 21 20 19 18 17 16 15 14 14 14 15 16 18 21 24 27 29 32 33 34 34 34 35 35 35 35 35 34 34 35 36 36 36 36 36 37 38 38 39 40 40 39 39 39 38 38 38 37
31 31 30 30 30 30 29 29 29 29 30 30 30 30 30 30 28 26 24 23 22 22 21 20 19 18 17 16 15 15 15 15 16 18 20 23 26 28 30 32 33 34 34 34 35 35 35 35 34 35 36 37 38 38 39 39 39 40 40 41 41 40 40 40 39 39 38 38 37
32 31 30 30 30 30 29 29 28 29 29 30 30 30 30 29 28 26 24 23 23 23 22 22 20 19 18 17 17 17 16 16 17 18 21 23 25 26 28 30 31 32 33 33 34 34 35 34 34 34 35 37 38 39 40 40 41 41 42 42 42 41 41 40 39 39 38 38 37
31 30 30 29 29 29 29 28 28 28 28 29 30 30 30 30 29 27 25 23 22 22 22 22 21 19 18 18 18 19 19 19 18 19 20 22 24 25 26 28 29 31 32 32 33 33 33 33 33 33 34 36 37 39 40 40 41 42 42 42 42 41 41 40 39 38 38 38 37
31 30 30 29 29 28 28 28 27 27 27 28 29 30 30 30 29 27 26 24 22 22 22 22 21 19 18 17 18 19 20 21 20 20 21 22 23 24 25 26 28 30 31 31 31 32 32 32 32 32 33 34 36 37 38 40 41 42 42 42 42 41 40 40 39 39 38 37 37
Wind_Direction
294 293 293 292 292 291 290 289 289 288 286 285 283 281 279 277 277 277 277 277 276 276 276 276 275 274 274 275 276 276 272 266 259 251 243 237 234 233 233 235 238 244 249 251 250 247 245 244 244 245 246 247 246 246 245 244 242 236 230 228 232 235 236 234 234 235 235 234 232
297 296 295 294 293 292 292 292 291 290 289 288 286 283 280 276 274 274 275 275 276 276 277 276 273 272 271 272 274 276 276 269 259 251 244 238 235 234 235 238 242 248 253 256 256 252 246 242 241 241 242 243 244 245 245 244 243 240 234 227 226 229 231 231 231 232 232 230 229
300 299 297 296 295 295 294 294 293 292 291 289 286 284 281 277 274 272 272 273 274 276 278 278 277 274 271 268 270 276 281 278 267 255 246 242 239 238 239 243 247 252 256 258 258 256 251 245 241 239 239 240 242 243 244 244 243 242 239 233 228 226 227 228 228 228 228 227 225
302 301 300 298 297 296 295 294 293 291 289 288 285 283 281 279 276 273 271 270 270 272 275 278 280 278 274 270 270 276 283 285 279 265 254 249 246 244 244 247 251 255 258 259 259 258 257 252 245 240 237 237 239 241 243 243 243 242 241 239 235 230 226 225 225 225 224 223 221
304 302 300 298 296 294 292 291 290 289 288 286 285 283 281 280 278 276 274 271 269 269 270 273 276 276 275 273 274 279 283 285 280 271 260 251 250 249 248 250 253 256 257 258 260 262 263 262 252 243 237 235 235 236 238 241 242 241 240 240 239 237 232 226 224 223 222 220 217
306 303 300 298 296 294 291 289 289 289 288 286 285 284 283 282 282 280 278 276 273 271 270 269 269 268 265 263 265 271 276 279 279 274 266 257 252 252 253 253 255 256 256 256 258 262 267 268 262 250 240 235 233 233 233 235 238 239 239 238 238 238 237 232 226 223 221 219 216
307 305 302 300 298 296 294 293 293 293 292 290 288 287 286 286 286 285 284 282 280 277 274 271 268 265 260 256 255 258 262 266 267 268 267 264 258 256 256 256 256 256 256 256 258 261 264 267 268 261 249 238 233 231 230 230 231 234 236 236 237 237 236 235 231 227 223 221 217
308 307 306 304 303 301 301 300 300 300 298 295 292 291 290 290 290 289 288 286 284 282 279 275 270 265 260 256 254 253 254 254 253 253 255 259 260 261 260 258 257 256 256 256 259 261 263 265 268 268 261 247 237 231 229 227 227 229 231 234 236 235 234 234 233 229 225 222 220
313 311 310 308 307 307 307 306 305 303 300 297 293 292 293 294 294 294 292 288 286 284 282 278 272 266 261 257 255 253 252 252 251 249 248 250 256 260 261 258 256 255 256 258 260 262 263 265 266 268 268 260 246 235 229 226 225 225 227 231 234 234 233 232 232 229 226 225 222
317 316 315 313 312 311 310 308 305 302 299 295 292 291 293 296 298 299 298 295 291 287 283 280 275 270 265 260 256 253 252 251 251 250 248 249 251 255 256 254 253 254 256 259 261 263 263 265 265 266 267 267 258 245 235 229 226 224 224 227 230 232 232 231 231 229 227 226 223
319 319 318 318 316 314 312 309 305 301 296 293 291 292 295 298 301 303 304 302 297 291 286 282 278 274 269 264 259 255 252 251 250 250 250 249 251 253 253 251 251 252 255 259 262 262 263 263 265 265 265 266 265 257 245 235 230 226 223 223 224 226 228 229 230 229 228 226 223
321 321 321 321 320 318 316 312 307 302 297 293 292 294 297 299 300 302 303 303 299 294 289 284 280 276 271 266 262 257 254 251 251 250 250 250 251 252 251 250 250 252 255 259 261 262 262 262 265 266 266 263 264 262 256 245 236 230 227 224 221 220 221 224 227 228 227 225 222
323 324 324 324 324 322 318 314 308 302 297 294 293 293 294 295 296 296 297 297 296 294 291 287 283 279 274 269 264 260 256 253 251 251 250 250 250 250 250 250 250 252 255 258 260 261 261 262 264 267 267 264 261 261 261 256 246 238 232 228 224 220 218 219 223 225 225 224 221
324 326 327 327 326 323 318 314 308 302 297 293 291 290 290 290 290 291 292 293 293 293 292 290 286 282 279 274 269 264 259 256 254 252 251 249 248 248 249 249 250 252 255 257 259 260 261 262 264 266 267 265 261 259 260 262 257 248 239 233 228 224 221 219 220 221 222 222 221
326 327 328 328 325 321 317 312 307 301 296 292 290 289 289 289 288 288 289 291 292 292 292 290 288 286 285 283 277 270 264 259 256 254 252 249 247 246 246 247 248 250 253 255 257 258 259 261 263 265 266 265 262 259 258 261 263 258 249 240 233 228 225 221 219 218 220 221 221
328 329 328 326 323 319 315 312 307 301 296 292 289 288 288 288 287 286 286 288 290 290 290 289 289 289 289 289 286 280 271 264 259 256 253 249 246 244 243 244 246 248 250 252 254 255 257 259 261 263 264 264 262 259 257 257 260 262 258 250 240 233 228 224 220 218 218 219 220
330 329 328 325 321 317 314 311 307 302 297 292 289 287 286 286 285 283 282 281 284 285 286 287 288 289 288 288 289 286 280 271 263 257 253 250 246 244 243 243 244 246 248 250 252 253 254 256 258 261 263 263 262 259 256 254 255 258 260 258 250 241 233 228 223 220 219 219 220
330 329 326 322 319 316 313 310 306 302 297 292 289 286 284 283 282 281 277 275 276 279 282 283 286 286 286 286 286 285 283 278 269 261 256 252 248 246 245 244 244 245 247 249 251 252 253 254 256 258 261 262 261 259 256 253 252 253 255 258 257 251 242 234 228 225 223 223 222
330 328 324 320 317 315 313 310 307 302 297 292 288 285 283 281 280 279 276 274 272 273 275 278 281 282 283 283 282 281 280 278 274 267 261 255 252 249 248 246 246 246 247 249 250 250 251 251 253 255 258 260 261 260 257 254 251 250 251 253 256 256 251 243 235 231 228 227 226
329 326 322 319 317 315 313 311 308 303 297 291 287 284 282 280 279 277 276 273 272 271 270 271 273 276 278 278 277 277 276 275 274 271 266 261 257 253 251 249 248 248 248 249 249 249 249 250 251 253 255 257 259 260 259 257 254 251 250 250 252 254 254 251 244 237 233 231 230
327 324 321 318 317 316 315 313 310 305 299 292 287 283 280 278 277 276 275 273 271 270 269 268 268 269 271 272 271 270 270 269 269 269 267 264 261 258 255 253 251 250 250 250 250 250 249 249 250 252 253 255 256 258 259 259 258 255 252 250 250 251 251 252 250 245 240 236 234
326 323 321 319 317 316 316 315 313 309 303 296 289 283 279 276 275 274 273 273 272 270 268 266 265 265 266 266 266 265 264 264 264 264 263 263 261 259 257 256 254 253 252 252 251 251 251 251 251 252 253 254 255 256 257 258 258 258 256 253 251 250 249 250 250 250 247 242 238
325 324 322 320 319 318 317 316 315 313 308 301 293 286 280 276 272 270 270 270 269 268 266 265 264 263 263 263 264 263 262 261 260 260 259 259 259 259 258 257 256 255 254 253 252 252 252 252 252 253 253 254 254 255 255 256 257 258 257 255 253 250 249 248 249 250 251 249 244
326 325 323 322 320 319 319 318 317 316 313 308 301 293 285 278 273 270 268 266 266 265 264 263 262 261 261 262 263 263 263 262 261 259 258 258 258 257 257 257 256 255 254 253 252 252 252 252 252 253 253 254 255 255 256 256 257 257 256 255 252 250 248 247 247 249 251 251 248
327 326 325 324 323 322 321 321 321 320 318 314 307 300 292 285 280 275 271 268 265 263 262 261 259 259 259 259 261 262 262 262 262 261 260 259 258 257 256 256 255 255 254 252 251 251 251 251 251 252 253 254 255 256 256 256 256 256 255 253 251 248 245 245 245 246 248 250 250
329 328 327 326 325 324 324 325 324 323 321 318 313 306 299 293 287 282 277 273 270 267 264 261 259 257 256 256 258 259 261 262 263 263 263 262 260 258 256 255 254 254 253 253 252 251 250 250 250 251 252 254 255 257 257 257 255 254 253 252 249 246 243 242 242 244 246 248 249
332 331 330 328 327 326 326 326 327 326 326 324 320 315 308 300 294 288 284 280 276 273 269 266 263 260 258 256 256 257 258 261 264 266 267 267 265 262 259 256 255 254 254 254 253 253 252 251 251 251 251 253 254 256 257 257 255 252 250 249 248 245 242 240 240 242 245 246 247
334 333 331 329 328 328 327 327 328 330 330 329 326 321 315 308 301 295 289 285 281 278 275 272 269 266 263 260 257 256 256 259 262 266 269 270 269 267 265 262 260 258 257 257 257 256 255 254 252 251 251 251 252 254 255 255 253 250 248 247 246 244 241 239 239 241 243 245 247
336 334 333 332 330 329 328 329 330 332 332 331 328 324 319 313 306 300 294 288 284 280 278 276 274 271 267 263 259 256 255 256 259 262 266 268 270 270 268 267 265 264 263 263 262 262 260 258 255 252 250 249 250 251 252 252 250 248 246 245 244 242 240 239 239 240 243 244 245
336 335 335 333 332 330 329 330 330 331 331 330 329 326 322 317 310 304 299 294 288 284 282 280 278 273 268 263 259 257 255 254 256 258 260 262 264 265 266 265 264 264 265 265 265 265 264 261 258 255 252 249 247 247 248 248 247 245 243 243 242 241 240 239 239 241 242 243 244
337 336 335 334 333 332 331 330 330 330 331 331 331 329 326 321 315 310 306 302 297 292 287 283 278 271 266 262 260 257 256 256 256 256 256 258 260 262 263 263 262 262 262 263 264 264 264 262 260 256 253 249 246 244 244 243 242 241 240 240 241 240 240 239 240 241 242 243 244
338 337 336 335 334 333 332 332 332 332 333 333 333 331 328 324 319 314 309 305 302 298 293 287 280 272 266 261 257 255 255 259 260 259 258 258 259 261 262 262 261 260 260 261 262 262 262 261 259 256 252 248 244 241 240 239 239 238 238 239 240 240 240 240 240 241 242 243 244
339 338 337 336 335 334 334 334 334 334 335 335 334 332 330 327 322 316 311 307 305 302 298 294 287 280 274 267 260 255 256 262 266 265 263 262 262 262 262 261 260 259 260 260 260 261 260 259 257 254 250 245 242 239 238 237 237 237 237 238 239 240 240 240 240 241 241 242 244
340 339 337 336 336 335 335 335 335 335 336 335 334 333 331 329 326 321 315 310 306 302 298 296 293 288 280 273 267 262 261 263 268 269 267 264 262 261 260 260 260 260 261 260 260 259 258 256 254 251 247 243 240 239 238 238 237 236 236 237 239 241 241 241 241 241 241 242 243
341 339 337 337 336 336 335 335 335 335 335 334 333 333 332 331 328 324 319 312 306 300 296 293 291 288 283 276 271 266 263 263 266 268 268 266 263 261 260 260 261 262 262 261 259 257 256 254 252 249 245 242 240 239 239 239 238 237 237 237 239 240 241 242 242 241 241 241 242
341 340 338 337 336 336 335 335 334 334 334 334 334 334 334 332 330 326 320 314 306 300 295 292 290 288 285 279 273 267 262 262 265 268 270 269 267 265 263 262 262 262 262 260 259 256 254 252 250 247 244 242 240 240 240 240 240 239 238 238 239 240 241 242 242 241 240 240 240
342 340 339 337 336 335 335 334 334 333 333 334 335 335 335 333 330 326 321 316 310 303 296 293 291 290 287 283 276 268 263 264 270 275 276 275 273 271 268 266 264 263 261 260 258 255 253 251 248 246 244 242 241 241 241 241 240 240 240 239 239 240 241 241 241 241 240 239 239
341 340 339 337 336 335 334 334 333 333 333 334 335 335 335 334 331 328 324 319 315 309 302 296 292 290 287 284 278 271 267 270 276 282 284 283 280 277 274 271 267 264 262 259 256 254 251 249 247 245 243 242 241 241 240 240 240 240 240 239 239 240 240 240 240 240 239 238 238
341 340 339 338 336 335 334 333 333 333 333 334 334 335 335 334 332 329 325 321 317 311 305 299 293 289 287 285 281 275 270 270 275 282 287 288 287 284 280 275 271 267 263 259 255 252 249 247 246 244 243 241 241 240 240 240 240 239 239 239 239 239 239 239 239 238 238 237 237
341 340 339 338 337 335 334 332 332 333 333 334 334 334 335 335 333 330 325 321 316 311 305 299 293 289 288 288 285 279 273 270 273 280 286 291 292 291 287 280 274 269 264 259 254 250 247 245 243 242 241 240 240 239 239 239 239 238 238 238 237 237 237 236 236 236 236 236 237
341 340 339 338 337 336 334 332 332 332 333 334 334 334 334 334 332 330 327 322 317 311 305 299 294 291 290 289 286 281 276 273 273 277 283 289 293 294 292 286 278 271 265 260 254 249 245 243 241 240 239 238 237 237 237 237 237 237 236 235 235 234 234 234 234 234 234 235 236
Height
1401 1400 1399 1398 1398 1397 1395 1394 1393 1393 1392 1392 1391 1390 1390 1390 1389 1388 1388 1388 1387 1387 1386 1386 1386 1386 1386 1386 1386 1387 1387 1387 1388 1389 1390 1391 1392 1393 1394 1395 1396 1397 1398 1398 1399 1400 1402 1403 1404 1404 1405 1405 1406 1407 1409 1410 1411 1412 1412 1413 1414 1415 1416 1417 1418 1419 1421 1422 1423
1398 1398 1397 1396 1395 1394 1393 1392 1391 1391 1390 1389 1389 1388 1388 1388 1387 1386 1386 1386 1385 1385 1384 1384 1384 1384 1384 1384 1384 1385 1385 1386 1386 1387 1388 1389 1390 1391 1392 1393 1394 1395 1395 1396 1396 1397 1398 1400 1401 1401 1402 1403 1404 1404 1405 1407 1409 1410 1410 1411 1412 1413 1414 1416 1416 1417 1418 1420 1421
1396 1396 1395 1394 1393 1393 1392 1390 1389 1388 1388 1388 1387 1387 1386 1385 1384 1384 1383 1383 1383 1383 1382 1382 1382 1382 1382 1382 1383 1383 1383 1384 1385 1386 1386 1387 1388 1389 1390 1391 1391 1392 1393 1394 1394 1394 1395 1397 1398 1398 1399 1400 1401 1401 1402 1403 1406 1408 1408 1409 1410 1411 1412 1413 1414 1415 1416 1417 1418
1395 1394 1393 1392 1392 1391 1390 1389 1388 1387 1386 1386 1385 1384 1383 1383 1383 1382 1381 1381 1381 1381 1380 1380 1379 1379 1379 1380 1381 1381 1382 1382 1383 1384 1385 1385 1386 1387 1388 1388 1389 1390 1390 1391 1392 1393 1393 1394 1395 1396 1397 1397 1398 1398 1399 1400 1402 1404 1406 1407 1408 1409 1409 1410 1412 1413 1414 1415 1416
1393 1392 1391 1390 1390 1389 1388 1387 1386 1385 1384 1384 1383 1382 1381 1381 1380 1379 1379 1378 1378 1378 1378 1378 1378 1378 1378 1379 1379 1379 1380 1380 1381 1382 1382 1383 1384 1385 1385 1386 1387 1388 1388 1389 1390 1391 1391 1392 1392 1393 1393 1394 1395 1396 1397 1398 1399 1401 1403 1404 1406 1407 1408 1408 1409 1411 1412 1413 1414
1391 1390 1389 1388 1388 1387 1386 1385 1384 1383 1383 1382 1381 1380 1379 1379 1378 1378 1377 1376 1375 1375 1375 1375 1375 1375 1375 1376 1377 1378 1378 1378 1379 1380 1380 1381 1382 1383 1383 1384 1385 1386 1386 1387 1388 1389 1390 1390 1390 1390 1391 1392 1393 1394 1394 1396 1397 1398 1399 1401 1403 1405 1406 1407 1408 1409 1410 1411 1412
1389 1388 1387 1386 1386 1385 1384 1383 1383 1382 1381 1380 1379 1378 1378 1377 1376 1375 1375 1374 1373 1373 1373 1373 1372 1372 1372 1373 1373 1373 1374 1376 1377 1378 1378 1379 1380 1381 1382 1382 1383 1384 1384 1385 1386 1387 1388 1388 1388 1388 1388 1389 1391 1392 1393 1394 1395 1396 1396 1398 1399 1402 1404 1405 1407 1408 1408 1409 1410
1387 1386 1385 1384 1383 1383 1382 1381 1380 1380 1379 1378 1377 1376 1376 1375 1374 1373 1373 1372 1371 1371 1370 1370 1370 1370 1370 1371 1371 1371 1371 1372 1373 1374 1375 1377 1378 1379 1380 1380 1381 1382 1382 1383 1384 1385 1385 1386 1386 1386 1386 1387 1388 1389 1391 1392 1393 1394 1394 1395 1397 1399 1401 1403 1404 1405 1406 1407 1408
1385 1384 1383 1383 1382 1381 1380 1379 1378 1378 1377 1376 1375 1374 1373 1373 1372 1372 1371 1370 1369 1369 1368 1368 1368 1368 1368 1369 1369 1369 1370 1370 1370 1371 1372 1373 1375 1377 1378 1378 1379 1379 1380 1381 1382 1382 1383 1383 1384 1384 1384 1385 1386 1387 1388 1390 1391 1392 1393 1393 1394 1396 1398 1400 1402 1403 1403 1404 1406
1383 1382 1381 1380 1380 1379 1378 1377 1376 1375 1374 1373 1373 1372 1372 1371 1370 1369 1369 1368 1368 1367 1367 1366 1366 1367 1367 1367 1367 1368 1368 1368 1369 1369 1370 1371 1372 1373 1374 1375 1376 1377 1378 1379 1379 1380 1381 1381 1382 1382 1383 1383 1383 1384 1386 1387 1389 1390 1391 1392 1392 1393 1395 1398 1399 1400 1401 1402 1404
1382 1381 1380 1379 1378 1377 1376 1375 1374 1373 1372 1371 1370 1370 1370 1369 1368 1368 1367 1366 1366 1365 1365 1365 1365 1365 1365 1365 1365 1366 1366 1367 1367 1368 1368 1369 1370 1371 1372 1373 1374 1375 1376 1377 1377 1378 1378 1379 1379 1380 1381 1381 1382 1383 1384 1385 1386 1388 1389 1390 1391 1392 1393 1395 1397 1398 1399 1400 1402
1380 1379 1378 1377 1376 1375 1374 1373 1372 1371 1370 1369 1368 1368 1368 1367 1367 1366 1365 1365 1364 1363 1363 1363 1363 1363 1363 1363 1363 1364 1364 1365 1366 1366 1367 1368 1368 1369 1370 1371 1372 1373 1374 1374 1375 1376 1376 1377 1377 1378 1379 1379 1380 1381 1382 1383 1384 1385 1386 1388 1389 1390 1390 1392 1394 1396 1397 1398 1400
1378 1377 1376 1375 1374 1373 1372 1371 1370 1369 1368 1367 1367 1366 1366 1365 1364 1364 1364 1363 1362 1361 1361 1361 1362 1362 1361 1361 1361 1362 1363 1363 1364 1364 1365 1365 1366 1368 1368 1369 1370 1371 1372 1373 1373 1374 1374 1375 1375 1376 1377 1378 1378 1379 1379 1380 1382 1383 1384 1385 1387 1388 1388 1389 1391 1393 1395 1396 1398
1377 1375 1374 1373 1373 1372 1371 1369 1368 1367 1366 1365 1365 1364 1364 1363 1363 1362 1362 1361 1361 1360 1359 1359 1360 1360 1359 1359 1360 1360 1360 1361 1362 1362 1363 1363 1364 1365 1367 1368 1368 1369 1370 1370 1371 1372 1373 1373 1374 1375 1375 1376 1377 1377 1378 1379 1380 1380 1382 1383 1384 1385 1386 1388 1389 1391 1392 1393 1395
1375 1374 1373 1372 1371 1370 1369 1368 1366 1365 1364 1363 1363 1363 1362 1362 1361 1360 1360 1359 1359 1358 1358 1358 1358 1358 1358 1358 1358 1358 1358 1359 1360 1360 1361 1361 1362 1363 1364 1365 1366 1367 1368 1368 1369 1370 1371 1372 1372 1373 1374 1374 1375 1376 1377 1377 1378 1379 1379 1380 1382 1383 1384 1385 1387 1388 1390 1391 1392
1373 1372 1371 1370 1369 1368 1367 1366 1365 1363 1363 1362 1361 1361 1361 1360 1359 1359 1358 1358 1357 1357 1357 1356 1356 1356 1356 1356 1357 1357 1357 1357 1357 1358 1358 1359 1360 1361 1362 1363 1364 1365 1365 1366 1367 1368 1369 1370 1370 1371 1372 1373 1373 1374 1375 1376 1377 1377 1378 1379 1380 1381 1382 1383 1384 1386 1387 1388 1390
1372 1371 1370 1369 1368 1367 1365 1364 1363 1362 1361 1360 1360 1359 1359 1358 1358 1358 1357 1356 1356 1355 1355 1355 1354 1354 1354 1354 1354 1355 1355 1355 1355 1356 1356 1357 1358 1358 1359 1360 1361 1362 1363 1364 1365 1366 1367 1368 1368 1369 1370 1371 1372 1373 1374 1375 1375 1376 1376 1377 1378 1379 1380 1381 1382 1383 1385 1386 1388
1370 1369 1368 1367 1366 1364 1363 1362 1361 1360 1359 1358 1358 1358 1357 1357 1357 1356 1355 1355 1354 1354 1353 1353 1353 1353 1352 1352 1352 1353 1353 1353 1353 1353 1354 1355 1356 1357 1357 1358 1359 1360 1361 1362 1363 1363 1364 1366 1367 1367 1368 1368 1369 1371 1372 1373 1374 1374 1375 1376 1376 1377 1378 1379 1380 1382 1383 1384 1386
1368 1368 1367 1365 1364 1363 1361 1360 1359 1358 1357 1357 1356 1356 1355 1355 1355 1354 1354 1353 1353 1352 1351 1351 1351 1351 1350 1350 1350 1350 1351 1351 1351 1352 1352 1353 1354 1354 1355 1356 1357 1358 1358 1359 1360 1361 1362 1363 1364 1365 1366 1366 1367 1368 1369 1371 1372 1373 1373 1374 1375 1376 1377 1378 1379 1380 1381 1383 1384
1368 1366 1365 1363 1362 1361 1359 1358 1357 1356 1355 1354 1354 1353 1353 1353 1353 1353 1352 1352 1351 1350 1349 1348 1348 1348 1348 1348 1348 1348 1348 1349 1349 1350 1350 1351 1352 1353 1353 1354 1354 1355 1356 1357 1358 1358 1360 1361 1362 1363 1364 1364 1365 1366 1367 1368 1369 1371 1372 1372 1373 1374 1375 1376 1377 1378 1379 1381 1382
1366 1365 1363 1362 1360 1359 1358 1356 1355 1354 1353 1353 1352 1351 1351 1351 1351 1350 1350 1349 1349 1349 1348 1347 1347 1346 1346 1346 1346 1346 1347 1347 1348 1348 1348 1348 1349 1350 1351 1352 1352 1353 1353 1354 1355 1356 1357 1358 1359 1360 1361 1362 1363 1363 1364 1365 1366 1368 1369 1370 1371 1372 1373 1374 1376 1377 1378 1379 1380
1365 1363 1362 1360 1358 1357 1356 1355 1353 1353 1352 1351 1350 1349 1349 1348 1348 1348 1348 1347 1347 1347 1346 1346 1345 1344 1344 1344 1344 1344 1345 1345 1345 1346 1346 1346 1347 1348 1348 1349 1350 1350 1351 1352 1352 1353 1354 1355 1356 1358 1358 1360 1361 1362 1362 1363 1364 1365 1366 1367 1368 1370 1371 1372 1373 1375 1376 1377 1378
1363 1361 1360 1358 1357 1355 1354 1353 1352 1351 1350 1349 1348 1347 1347 1346 1346 1346 1345 1345 1345 1345 1344 1344 1343 1343 1342 1342 1342 1342 1342 1343 1343 1343 1344 1344 1345 1345 1346 1347 1347 1348 1348 1349 1350 1351 1352 1353 1354 1355 1356 1357 1358 1359 1360 1361 1362 1363 1363 1365 1366 1367 1368 1369 1371 1372 1373 1374 1375
1361 1359 1358 1357 1355 1354 1352 1351 1350 1349 1348 1347 1346 1345 1344 1344 1343 1343 1343 1343 1342 1342 1342 1342 1341 1341 1340 1340 1340 1340 1340 1340 1340 1340 1341 1342 1342 1343 1343 1344 1344 1345 1345 1346 1347 1348 1349 1350 1351 1352 1353 1354 1355 1356 1357 1358 1359 1360 1361 1362 1363 1364 1366 1367 1368 1370 1371 1372 1373
1359 1358 1356 1355 1353 1352 1351 1349 1348 1347 1346 1345 1344 1343 1343 1342 1341 1340 1340 1340 1339 1339 1339 1339 1338 1338 1338 1338 1338 1338 1338 1337 1337 1338 1338 1338 1339 1340 1340 1341 1341 1342 1342 1343 1344 1345 1346 1347 1348 1349 1350 1351 1352 1353 1354 1355 1357 1358 1358 1359 1361 1362 1363 1364 1366 1367 1368 1370 1371
1358 1356 1355 1353 1352 1351 1349 1348 1347 1346 1344 1343 1342 1341 1340 1340 1339 1338 1338 1337 1337 1336 1336 1336 1335 1335 1335 1335 1335 1335 1335 1335 1335 1335 1335 1335 1336 1337 1337 1338 1338 1338 1339 1339 1341 1342 1343 1344 1345 1346 1347 1348 1349 1350 1351 1352 1353 1354 1355 1356 1358 1359 1360 1362 1363 1364 1366 1367 1368
1356 1355 1353 1352 1351 1349 1348 1347 1345 1344 1343 1342 1340 1339 1338 1338 1337 1336 1335 1335 1334 1333 1333 1333 1332 1332 1332 1332 1332 1332 1332 1332 1332 1332 1332 1333 1333 1333 1333 1334 1334 1335 1335 1336 1337 1338 1340 1341 1342 1343 1344 1345 1346 1347 1347 1348 1350 1351 1352 1353 1354 1355 1357 1358 1360 1361 1363 1364 1366
1355 1353 1352 1350 1349 1348 1346 1345 1343 1342 1341 1340 1338 1338 1336 1335 1335 1334 1333 1332 1331 1331 1330 1330 1329 1329 1329 1329 1329 1329 1329 1329 1329 1329 1329 1329 1329 1330 1330 1330 1331 1331 1332 1333 1334 1335 1337 1338 1339 1340 1341 1342 1343 1343 1344 1345 1346 1348 1349 1350 1351 1352 1353 1355 1357 1358 1360 1362 1363
1353 1352 1350 1348 1347 1346 1344 1343 1341 1340 1338 1337 1336 1335 1334 1333 1332 1331 1330 1330 1329 1328 1328 1327 1327 1327 1327 1326 1326 1326 1326 1327 1327 1327 1327 1327 1327 1327 1327 1327 1327 1328 1328 1329 1331 1332 1333 1334 1335 1336 1337 1338 1339 1340 1341 1342 1343 1344 1345 1346 1347 1348 1350 1352 1353 1355 1357 1358 1360
1352 1350 1348 1347 1345 1344 1342 1341 1339 1338 1336 1335 1334 1333 1332 1331 1330 1329 1328 1328 1327 1326 1326 1325 1324 1324 1323 1323 1323 1323 1323 1323 1324 1324 1324 1324 1324 1324 1324 1324 1324 1325 1325 1326 1327 1328 1329 1330 1332 1333 1334 1335 1336 1337 1338 1338 1340 1341 1342 1343 1343 1345 1347 1348 1350 1352 1354 1355 1357
1350 1349 1347 1345 1343 1342 1341 1339 1338 1336 1334 1333 1332 1331 1330 1328 1328 1327 1326 1325 1325 1324 1323 1323 1322 1321 1321 1320 1320 1320 1320 1321 1321 1321 1321 1321 1321 1321 1321 1322 1322 1322 1323 1323 1324 1325 1326 1327 1328 1329 1331 1332 1333 1334 1335 1336 1337 1338 1339 1340 1340 1342 1343 1346 1347 1349 1351 1352 1354
1349 1347 1345 1343 1342 1340 1339 1338 1336 1334 1333 1331 1330 1329 1328 1327 1326 1325 1324 1323 1322 1321 1321 1320 1319 1318 1318 1318 1318 1318 1318 1318 1318 1318 1318 1318 1318 1318 1318 1319 1319 1319 1320 1321 1321 1322 1323 1324 1325 1326 1328 1329 1330 1331 1332 1333 1334 1335 1336 1337 1338 1339 1341 1343 1344 1346 1348 1349 1351
1347 1345 1344 1342 1340 1338 1337 1336 1334 1333 1331 1330 1329 1328 1326 1325 1323 1323 1322 1321 1320 1319 1318 1317 1317 1316 1315 1315 1315 1314 1315 1315 1315 1316 1315 1315 1315 1315 1315 1316 1316 1316 1317 1318 1318 1319 1320 1321 1322 1323 1325 1326 1328 1328 1329 1330 1331 1332 1333 1334 1335 1336 1338 1340 1341 1343 1345 1346 1348
1346 1344 1342 1340 1338 1337 1335 1334 1332 1331 1329 1328 1327 1326 1324 1323 1321 1320 1319 1318 1317 1316 1315 1315 1314 1313 1313 1312 1312 1312 1312 1312 1313 1313 1313 1313 1313 1313 1313 1312 1312 1313 1313 1314 1315 1316 1317 1318 1319 1321 1322 1324 1325 1326 1327 1328 1328 1330 1331 1332 1333 1333 1335 1337 1338 1340 1342 1344 1345
1344 1342 1340 1338 1337 1335 1333 1332 1330 1329 1328 1326 1324 1323 1322 1321 1319 1318 1316 1315 1314 1313 1313 1312 1312 1311 1310 1310 1309 1309 1309 1309 1309 1310 1310 1311 1311 1310 1310 1309 1309 1309 1310 1311 1312 1313 1314 1315 1317 1318 1320 1321 1323 1323 1324 1325 1326 1327 1328 1329 1330 1331 1332 1334 1336 1338 1339 1341 1343
1343 1341 1339 1337 1335 1333 1332 1330 1328 1327 1326 1324 1322 1321 1319 1318 1317 1316 1314 1313 1312 1311 1310 1309 1309 1308 1308 1307 1307 1307 1307 1307 1307 1307 1307 1308 1308 1307 1306 1306 1306 1306 1307 1308 1308 1309 1311 1312 1314 1315 1317 1318 1320 1321 1322 1322 1323 1324 1325 1326 1327 1328 1329 1331 1333 1335 1337 1338 1340
1342 1340 1338 1335 1333 1332 1330 1328 1327 1325 1323 1322 1320 1319 1317 1316 1314 1313 1312 1311 1310 1308 1308 1307 1306 1306 1305 1305 1304 1304 1304 1304 1304 1304 1304 1304 1304 1303 1303 1303 1303 1303 1304 1304 1305 1306 1307 1309 1310 1312 1314 1315 1317 1318 1318 1319 1320 1321 1322 1323 1324 1325 1327 1328 1330 1332 1334 1335 1337
1340 1338 1337 1334 1332 1330 1328 1327 1325 1324 1322 1320 1318 1317 1316 1314 1313 1311 1310 1309 1308 1307 1305 1304 1304 1303 1303 1303 1302 1302 1301 1302 1302 1302 1302 1301 1301 1300 1300 1299 1299 1299 1300 1301 1302 1303 1304 1305 1307 1309 1311 1312 1313 1314 1315 1316 1317 1318 1319 1320 1321 1323 1324 1326 1327 1329 1331 1333 1334
1339 1338 1335 1333 1331 1329 1328 1326 1324 1323 1321 1319 1317 1315 1314 1313 1311 1309 1308 1308 1307 1305 1304 1303 1302 1301 1301 1300 1299 1299 1299 1299 1299 1299 1299 1299 1298 1298 1297 1296 1296 1296 1297 1298 1298 1299 1301 1302 1303 1305 1307 1308 1310 1311 1312 1313 1314 1314 1315 1317 1318 1319 1321 1323 1324 1326 1328 1329 1331
1338 1336 1334 1333 1331 1328 1327 1325 1323 1322 1320 1318 1316 1314 1313 1311 1309 1308 1307 1306 1305 1304 1303 1301 1300 1299 1299 1298 1297 1297 1296 1296 1297 1297 1297 1296 1295 1294 1294 1293 1293 1293 1293 1294 1295 1296 1297 1299 1300 1302 1303 1305 1306 1308 1309 1310 1311 1311 1312 1313 1315 1317 1318 1320 1322 1323 1325 1327 1329
1338 1336 1333 1332 1330 1328 1326 1324 1322 1321 1319 1318 1316 1314 1312 1310 1308 1307 1305 1304 1303 1302 1301 1300 1298 1298 1297 1296 1295 1295 1294 1294 1294 1294 1294 1293 1293 1292 1291 1290 1290 1290 1290 1291 1292 1293 1294 1295 1297 1298 1300 1302 1303 1304 1305 1306 1307 1308 1309 1310 1312 1313 1315 1317 1319 1321 1323 1324 1327